Чанги

Узбекистан     41°20′42″N   69°47′38″E
темп.,
°C
ветер,
м/с
пор.,
м/с
влажн.,
%
обл.,
%
осадки,
мм/ч
давл.,
гПа
погр.,
м
27 февраля, сб
сб2723:00−7вюв1146100 0.0 103121
02:00−8в1143100 0.0 102921
05:00−7св1144100 0.0 102921
08:00−6в1154100 0.0 102921
11:00−2ююв3562100 0.1 10301320
14:00−1юв3464100 0.1 1029875
17:00−2вюв3364100 0.1 103032
20:00−5вюв445270 0.0 103225
28 февраля, вс
вс2823:00−4вюв434935 0.0 103123
02:00−3в43480 0.0 103023
05:00−3в33460 0.0 102822
08:00−2вюв22490 0.0 102722
11:00+2вюв01980 0.0 102431
14:00+3в01950 0.0 102143
17:00+3в11690 0.0 102122
20:00+2вюв33380 0.0 102222
1 марта, пн
пн123:00+2в223742 0.0 102222
02:00+2в1233100 0.0 102122
05:00+3в2231100 0.0 102122
08:00+4в3335100 0.0 102122
11:00+7в117781 0.0 102035
14:00+8св22740 0.0 101946
17:00+7вюв23450 0.0 101922
20:00+6в44300 0.0 102124
2 марта, вт
вт223:00+6в44340 0.0 102125
02:00+6вюв443533 0.0 102126
05:00+6вюв333667 0.0 102124
08:00+6вюв2243100 0.0 102222
11:00+9сз1159100 0.0 1022108
14:00+10всв1149100 0.0 1020194
17:00+7ссв2257100 0.0 102039
20:00+6в4460100 0.0 102238
3 марта, ср
ср323:00+5всв3361100 0.0 102227
02:00+4всв2370100 0.1 102138
05:00+3ю2291100 1.4 1021103
08:00+3ююв3491100 2.8 1021168
11:00+4ююз2286100 4.3 1020334
14:00+4сз2294100 1.1 1019234
17:00+3ссз2398100 4.3 1020208
20:00+4в3488100 3.6 1020190